This is the latest recevied weather packets stored in our database for station/object K7LDN-13. If no packets are shown the sender has not sent any weather packets the latest 10 day(s).
| Time | Temp. | Humidity | Pressure | Rain* | Wind** | Luminosity | Snow |
|---|---|---|---|---|---|---|---|
| 1777167909 | 15° C | 32% | 1007.2 hPa | 0 mm | - | 32 W/m² | - |
| 1777167603 | 15° C | 32% | 1007.2 hPa | 0 mm | - | 39 W/m² | - |
| 1777167299 | 15° C | 32% | 1007.3 hPa | 0 mm | - | 46 W/m² | - |
| 1777166995 | 15° C | 32% | 1007.5 hPa | 0 mm | - | 54 W/m² | - |
| 1777166691 | 15.56° C | 31% | 1007.5 hPa | 0 mm | - | 65 W/m² | - |
| 1777166386 | 15.56° C | 31% | 1007.6 hPa | 0 mm | - | 71 W/m² | - |
| 1777166082 | 15.56° C | 31% | 1007.6 hPa | 0 mm | - | 83 W/m² | - |
| 1777165780 | 15.56° C | 31% | 1007.5 hPa | 0 mm | - | 99 W/m² | - |
| 1777165477 | 15.56° C | 30% | 1007.6 hPa | 0 mm | - | 108 W/m² | - |
| 1777165173 | 15.56° C | 30% | 1007.6 hPa | 0 mm | - | 116 W/m² | - |
| 1777164868 | 15.56° C | 30% | 1007.7 hPa | 0 mm | - | 118 W/m² | - |
| 1777164566 | 15.56° C | 30% | 1007.7 hPa | 0 mm | - | 124 W/m² | - |
| 1777164261 | 16.11° C | 30% | 1007.7 hPa | 0 mm | - | 131 W/m² | - |
| 1777163961 | 16.11° C | 29% | 1007.8 hPa | 0 mm | - | 136 W/m² | - |
| 1777163656 | 16.11° C | 29% | 1007.5 hPa | 0 mm | - | 152 W/m² | - |
| 1777163351 | 16.11° C | 30% | 1007.8 hPa | 0 mm | - | 156 W/m² | - |
| 1777163048 | 16.67° C | 29% | 1007.7 hPa | 0 mm | - | 167 W/m² | - |
| 1777162742 | 16.67° C | 28% | 1007.7 hPa | 0 mm | - | 197 W/m² | - |
| 1777162437 | 17.22° C | 27% | 1007.8 hPa | 0 mm | - | 228 W/m² | - |
| 1777162136 | 16.67° C | 26% | 1007.8 hPa | 0 mm | - | 233 W/m² | - |
| 1777161832 | 16.67° C | 26% | 1007.9 hPa | 0 mm | - | 225 W/m² | - |
* Rain latest hour (hover to see other rain measurements)
** Current wind speed in m/s (hover to see current wind gust speed)